{"data":{"norad_id":89484,"intl_designator":"","name":"UNKNOWN","alt_names":[],"object_type":"UNKNOWN","status":"UNKNOWN","operator":null,"country":null,"launch_date":null,"launch_site_code":null,"launch_vehicle":null,"mission":null,"orbit_class":"UNKNOWN","rcs_meters":null,"size_class":null,"mass_kg":null,"dimensions":null,"purposes":[],"wikipedia_slug":null,"has_3d_model":false,"image_url":null,"decayed_at":null,"tle_current":{"epoch":"2026-08-26T06:23:11.444352Z","epoch_age_seconds":2198319,"freshness":"OLD","line1":"1 89484U          26238.26610468  .01435267  00000+0  78765-1 0  9998","line2":"2 89484  83.6916  69.9601 1911401  12.2000 351.9258 11.51993930380196","mean_motion":11.5199393,"eccentricity":0.1911401,"inclination_deg":83.6916,"raan_deg":69.9601,"arg_perigee_deg":12.2,"mean_anomaly_deg":351.9258,"bstar":0.078765,"rev_number":38019,"period_min":125.00065864062,"perigee_km":320.32379021061,"apogee_km":3486.1241106046,"semimajor_km":8281.3609504076,"source":"CELESTRAK","updated_at":"2026-09-20T09:00:32.485785Z"}}}